Regional Weather Roundup
Issued by NWS

Home | Current Version | Previous Version | Graphics & Text | Print | Product List | Glossary On
Versions: 1 2 3 4 5 6 7 8 9 10 11 12 13 14 15 16 17 18 19 20 21 22 23 24 25 26 27 28 29 30 31 32 33 34 35 36 37 38 39 40 41 42 43 44 45 46 47 48 49 50
000
ASUS43 KLMK 110510
RWRKY
KENTUCKY REGIONAL WEATHER ROUNDUP
NATIONAL WEATHER SERVICE LOUISVILLE KY
100 AM EDT FRI JUL 11 2014

NOTE "FAIR" INDICATES FEW OR NO CLOUDS BELOW 12,000 FEET
WITH NO SIGNIFICANT WEATHER AND/OR OBSTRUCTIONS TO VISIBILITY.

KYZ001>023-026-027-061>063-070>075-110600-
WESTERN AND SOUTH CENTRAL KENTUCKY

CITY           SKY/WX    TMP DP  RH WIND       PRES   REMARKS
PADUCAH        CLEAR     70  66  87 CALM      30.12S
HENDERSON      CLEAR     64  61  88 CALM      30.13F
OWENSBORO      CLEAR     72  61  68 CALM      30.14S
HOPKINSVILLE   PTCLDY    71  65  81 NE2       30.14R
BOWLING GREEN  MOCLDY    71  63  75 CALM      30.14S
GLASGOW        CLEAR     67  60  80 CALM      30.15S
$$

KYZ024-025-028>034-038-045-046-053-110600-
NORTH CENTRAL KENTUCKY

CITY           SKY/WX    TMP DP  RH WIND       PRES   REMARKS
LOUISVILLE/SDF CLEAR     72  59  63 N5        30.16R
LOUISVILLE/LOU CLEAR     71  59  65 NW3       30.16R
FORT KNOX      CLEAR     68  59  74 NE2       30.15R
$$

KYZ035>037-039>044-047>052-055>060-089>105-110600-
NORTHEAST KENTUCKY

CITY           SKY/WX    TMP DP  RH WIND       PRES   REMARKS
LEXINGTON      CLEAR     66  60  81 CALM      30.17R
COVINGTON      PTCLDY    70  54  56 NE5       30.18R
FRANKFORT      CLEAR     62  58  86 CALM      30.16R
$$

KYZ054-064>069-076>088-106>120-110600-
SOUTHEAST KENTUCKY

CITY           SKY/WX    TMP DP  RH WIND       PRES   REMARKS
JACKSON        CLEAR     71  61  70 CALM      30.17R
LONDON         CLEAR     71  62  73 CALM      30.17R
SOMERSET       CLEAR     68  61  77 CALM      30.17R
MIDDLESBORO    CLEAR     65  63  95 CALM      30.17S
MONTICELLO     CLEAR     64  63  97 CALM      30.18R FOG
$$



USA.gov is the U.S. government's official web portal to all federal, state and local government web resources and services.